Regional Weather Roundup
Issued by NWS Cleveland, OH

Home | Current Version | Previous Version | Graphics & Text | Print | Product List | Glossary On
Versions: 1 2 3 4 5 6 7 8 9 10 11 12 13 14 15 16 17 18 19 20 21 22 23 24 25 26 27 28 29 30 31 32 33 34 35 36 37 38 39 40 41 42 43 44 45 46 47 48 49 50
357
ASUS41 KCLE 201202
RWRCLE
OHIO REGIONAL WEATHER ROUNDUP
NATIONAL WEATHER SERVICE CLEVELAND, OH
800 AM EDT THU JUL 20 2017

NOTE: "FAIR" INDICATES FEW OR NO CLOUDS BELOW 12,000 FEET WITH NO
SIGNIFICANT WEATHER AND/OR OBSTRUCTIONS TO VISIBILITY.

OHZ001>008-015>018-024>027-034-035-043-044-201300-
   NORTHWEST OHIO

CITY           SKY/WX    TMP DP  RH WIND       PRES   REMARKS
DEFIANCE       CLOUDY    74  68  81 CALM      30.04F
FINDLAY        PTSUNNY   76  71  85 SW8       30.05R
TOLEDO EXPRESS CLOUDY    74  73  97 SW8       30.01S
TOLEDO EXEC    CLOUDY    76  74  93 SW8       30.03R FOG
LIMA           CLOUDY    75  73  93 SW8       30.08R
$$

OHZ009>014-019>023-028>033-038-089-201300-
   NORTHEAST OHIO

CITY           SKY/WX    TMP DP  RH WIND       PRES   REMARKS
CLE-HOPKINS    CLOUDY    77  69  76 SW9       30.05R
CLE-LAKEFRONT  CLOUDY    79  68  69 SW8       30.02R
CUY CO. ARPT   CLOUDY    77  70  78 SW8       30.03S
LORAIN-ELYRIA  CLOUDY    74  66  76 SW8       30.05R
ASHTABULA      CLOUDY    72  68  87 S6        30.04S
AKRON-CANTON   CLOUDY    75  66  73 SW6       30.07R
WOOSTER        CLOUDY    72  69  90 S3        30.08R
MANSFIELD      CLOUDY    75  70  84 SW7       30.09R
YOUNGSTOWN     CLOUDY    73  67  81 SW5       30.06R
$$

OHZ042-051>053-060>062-070>072-077>081-201300-
  SOUTHWEST OHIO

CITY           SKY/WX    TMP DP  RH WIND       PRES   REMARKS
CINC-COVINGTON PTSUNNY   73  72  96 SW3       30.12R
CINC-LUNKEN    CLOUDY    71  70  96 CALM      30.11R
HAMILTON       PTSUNNY   73  72  96 SW3       30.11R
DAYTON         CLOUDY    74  71  91 SW7       30.12R
WRIGHT-PAT AFB CLOUDY    73  72  97 CALM      30.11R
DAYTON GENERAL CLOUDY    74  70  87 SW5       30.11R
WILMINGTON     MOSUNNY   72  70  93 CALM      30.11R
$$

OHZ036-037-039>041-045>050-054>059-063>069-073>076-082>088-201300-
  CENTRAL AND SOUTHEAST OHIO

CITY           SKY/WX    TMP DP  RH WIND       PRES   REMARKS
COLUMBUS       PTSUNNY   74  70  87 SE5       30.09R
OSU AIRPORT    CLOUDY    75  71  87 SW7       30.10R
BOLTON FIELD   SUNNY     72  70  94 CALM      30.11R
RICKENBACK AFB MOSUNNY   70  69  97 S3        30.10R
NEWARK         SUNNY     71  68  90 CALM      30.10R
MARION         MOSUNNY   73  69  87 SW5       30.09R
LANCASTER      SUNNY     68  68 100 CALM      30.11R
ZANESVILLE     SUNNY     72  68  87 SW5       30.10R
NEW PHILLY     NOT AVBL
$$




USA.gov is the U.S. government's official web portal to all federal, state and local government web resources and services.